RH
94 95 96 97 97 95 96 97 81 69 76 78 73 75 76 82 86 81 80 83 85 91 89 88 95 92 85 86 87 88 91 92 87 82 81 78 73 69 67 68 68 63 63 55 31 22 27 24 24 28 25 27 25 18 16 13 10 17 20 21 35 41 34 29 27 26 23 19 20 20 15 14 16 15 15 17 19 20 19 25 33 36 41 46 37 27 41
88 88 90 95 99 98 98 101 89 72 73 81 81 78 82 91 89 81 81 80 82 92 92 90 93 90 90 94 93 92 92 90 88 85 82 77 73 73 68 62 60 58 61 57 38 30 31 24 23 27 25 23 22 18 15 13 12 15 19 24 31 32 30 30 28 28 30 27 24 22 18 17 19 20 19 16 17 23 29 33 32 29 37 39 25 24 53
79 85 91 94 97 99 99 101 97 80 72 84 92 85 86 92 85 77 79 77 80 91 95 96 95 91 92 94 92 93 91 88 88 85 82 76 73 75 69 58 55 56 58 61 53 43 35 27 25 26 23 25 30 20 11 15 14 11 16 22 25 32 36 33 29 30 35 36 33 31 26 21 21 23 21 16 19 25 28 32 27 26 41 41 23 33 73
73 86 92 92 93 99 100 99 101 88 74 87 100 93 92 95 83 76 79 80 86 94 96 100 98 94 97 93 87 92 93 87 86 86 84 78 73 73 67 60 60 60 62 68 63 51 43 31 25 26 26 36 45 29 14 16 13 11 20 24 30 41 40 37 37 34 31 30 33 37 31 23 22 25 22 18 20 24 26 28 26 29 42 42 37 57 89
64 76 87 90 94 100 99 98 103 93 78 88 101 97 97 97 84 80 86 90 94 97 97 100 98 95 97 91 84 90 93 86 83 84 81 76 75 74 68 66 71 74 73 71 65 60 51 30 23 36 44 51 55 39 22 15 11 21 29 26 34 38 30 37 43 39 40 38 39 46 38 24 22 24 26 25 25 30 32 30 34 39 35 34 55 81 90
53 57 69 79 86 97 100 99 102 94 82 88 99 98 98 98 90 88 94 95 94 94 95 98 98 95 94 91 90 93 92 85 87 89 81 73 71 72 71 70 74 79 75 71 73 68 53 38 38 49 55 57 51 37 29 23 20 34 35 29 39 34 25 39 38 36 59 64 59 63 52 36 33 28 28 29 29 34 33 31 40 38 22 26 62 86 77
50 45 49 55 64 82 96 100 100 94 87 90 98 99 98 99 97 96 97 98 94 93 95 97 98 97 94 92 92 94 93 88 90 90 86 81 70 69 79 78 73 76 72 75 87 77 55 50 55 58 62 67 58 44 40 37 35 40 34 34 45 31 28 48 37 31 63 73 69 71 58 48 46 37 33 33 32 34 31 36 50 49 41 49 69 80 71
49 40 41 45 48 66 88 99 100 95 92 92 96 99 99 99 99 97 98 98 95 94 95 96 97 97 93 88 86 90 93 91 90 88 88 90 78 72 85 84 74 73 69 72 84 80 68 66 66 66 66 64 63 58 51 47 45 39 31 35 39 26 34 56 39 30 57 70 70 69 58 51 49 45 51 45 34 36 39 51 61 58 65 76 77 80 76
47 38 39 42 45 59 80 94 100 98 96 95 96 99 100 100 100 100 100 97 92 94 95 94 95 95 91 88 87 90 93 90 90 87 82 86 85 79 86 85 74 72 72 74 78 76 75 73 69 72 67 56 62 65 54 47 43 39 38 39 35 28 44 59 39 27 48 67 73 69 60 56 49 53 69 62 46 49 55 62 63 55 70 88 81 75 72
46 38 37 40 43 53 65 77 91 100 100 99 99 100 100 99 98 98 101 96 90 94 97 94 95 94 90 88 86 87 88 84 87 87 79 79 83 81 84 83 75 74 75 76 75 72 74 73 69 74 72 65 68 69 62 53 41 37 41 43 42 38 46 57 42 25 42 69 78 69 57 47 40 51 74 77 75 78 73 72 72 63 68 76 62 53 59
42 34 34 37 41 47 50 54 69 88 97 99 100 100 99 100 99 98 100 97 90 94 98 96 96 94 89 87 86 86 85 80 85 90 84 79 80 81 82 80 78 79 75 71 71 72 74 75 72 70 66 66 69 67 65 63 55 49 43 42 51 49 46 57 49 29 45 75 79 66 51 40 46 70 86 84 83 80 69 72 79 71 70 74 65 60 68
37 30 31 36 39 43 45 45 53 71 86 93 98 100 99 100 100 99 100 98 92 94 97 94 94 93 90 89 89 90 90 84 85 90 88 84 82 80 81 81 78 72 66 66 68 67 69 71 71 66 59 60 64 61 58 60 63 64 52 42 50 50 47 61 59 41 52 71 65 53 48 47 63 87 92 84 83 82 77 83 91 86 83 88 85 80 77
37 30 29 33 37 40 43 43 48 59 71 82 93 98 99 100 100 99 100 100 95 95 97 94 92 90 90 90 88 89 90 88 88 93 93 89 87 83 79 78 73 63 63 68 65 64 73 73 66 61 55 52 55 54 56 61 63 65 60 48 46 49 49 59 62 54 55 57 49 47 53 63 79 92 91 87 88 87 74 67 77 88 87 83 83 80 75
41 34 30 29 33 38 40 41 44 47 54 68 82 89 93 98 100 99 100 100 96 94 96 96 92 90 90 91 90 89 88 86 88 92 93 91 91 85 74 68 67 63 65 69 62 61 72 68 58 58 55 50 51 50 54 65 66 65 68 59 47 47 48 50 58 61 57 50 45 48 53 60 72 84 89 86 83 79 61 41 54 82 88 79 79 80 75
44 37 31 28 29 34 37 39 41 42 44 56 71 81 88 96 100 100 100 100 98 94 92 93 94 95 93 90 92 94 89 87 90 91 93 96 90 78 67 64 65 62 62 66 65 64 65 58 53 55 51 49 55 52 55 68 68 63 70 67 54 50 49 44 47 57 59 51 46 50 50 46 49 64 79 79 74 74 61 40 45 73 84 77 76 78 76
43 38 33 29 27 29 33 36 38 40 42 49 64 78 88 95 99 100 98 101 101 91 82 85 91 96 95 90 92 96 92 91 95 90 87 90 81 66 61 61 61 61 62 65 67 64 62 60 60 58 57 61 62 54 57 70 67 60 63 62 56 57 56 48 46 55 61 52 45 49 49 43 46 60 73 77 73 70 61 42 39 63 81 80 75 75 76
42 38 34 31 28 27 29 32 35 38 39 44 58 77 89 93 99 102 98 99 103 91 78 83 92 96 97 92 90 93 92 92 95 89 82 82 74 62 60 61 60 62 63 65 68 65 65 70 68 62 67 78 70 52 56 70 69 62 58 54 54 58 55 48 46 53 58 49 43 46 46 46 57 67 73 75 68 60 54 39 35 59 80 79 74 75 75
43 39 35 33 29 27 27 28 31 35 37 40 52 68 79 80 86 99 100 97 102 95 77 79 92 93 92 92 91 92 94 93 92 89 84 83 78 69 66 67 64 60 60 65 70 68 66 72 71 60 64 79 74 57 56 61 63 67 68 63 62 61 57 52 48 50 54 49 43 43 40 45 62 73 75 73 61 49 46 40 42 65 82 79 76 78 77
43 40 37 35 31 28 27 26 28 31 34 37 43 54 66 65 67 85 98 99 103 93 66 63 81 84 82 89 90 86 87 91 94 90 79 72 72 71 69 69 68 69 70 67 67 67 63 69 77 70 66 79 82 69 63 63 68 77 77 67 61 59 59 60 55 52 54 50 44 41 38 47 69 78 74 67 55 45 46 50 57 72 83 82 79 78 79
42 41 38 36 33 30 29 26 26 28 30 34 37 43 56 61 57 69 88 98 104 93 61 51 69 76 74 82 84 79 80 86 92 94 82 67 66 67 65 63 67 76 77 67 64 68 62 65 79 74 68 82 88 74 67 73 80 83 77 70 69 62 53 53 55 57 59 55 49 44 40 50 69 71 64 61 55 48 54 64 72 80 83 83 82 80 81
39 41 38 36 34 32 30 28 26 26 26 30 34 36 44 52 50 56 74 91 103 96 65 46 55 61 60 63 65 69 75 74 76 84 80 69 68 66 63 63 67 76 79 68 63 68 65 68 79 74 68 82 87 72 65 68 72 80 83 80 77 66 52 48 53 56 54 49 48 50 55 65 69 63 60 61 55 50 57 66 76 85 87 84 82 82 82
35 40 39 37 35 33 32 30 28 26 24 27 31 33 37 42 44 50 65 82 92 84 60 44 46 45 43 46 47 50 58 60 63 72 74 72 72 67 63 65 67 71 74 65 60 70 73 70 73 73 74 81 81 78 78 68 60 72 83 76 67 65 64 62 61 63 60 52 52 63 75 80 76 70 72 68 55 52 57 60 68 81 85 82 82 83 83
29 37 40 38 35 35 34 31 29 27 24 24 28 31 33 38 40 45 58 74 81 69 47 38 40 35 32 37 38 39 45 50 53 58 63 71 74 67 63 64 62 62 65 60 59 71 74 68 69 74 77 75 70 73 80 72 66 76 81 72 70 77 78 72 71 74 71 67 72 80 81 77 74 74 74 67 57 54 56 59 64 69 73 78 80 80 82
23 32 40 39 36 36 34 32 31 28 24 24 26 28 32 36 36 41 55 72 82 75 55 40 36 33 31 34 35 35 38 41 42 44 50 62 69 64 58 57 55 58 61 58 58 63 64 66 72 71 65 63 62 63 63 63 68 78 76 70 75 81 77 72 73 71 59 58 74 83 79 75 75 73 70 67 60 55 54 57 60 61 66 77 80 79 82
18 26 37 40 38 36 34 33 31 27 24 24 24 26 30 31 33 45 60 69 80 90 84 59 37 30 33 35 34 34 34 34 37 39 42 49 55 56 55 55 55 59 62 61 62 61 56 60 67 65 58 57 61 62 59 58 64 71 68 64 69 75 71 69 75 73 61 58 73 82 79 77 74 70 69 67 62 56 55 57 59 60 66 75 78 78 82
14 20 32 40 39 36 35 33 31 27 24 22 23 26 27 27 37 55 65 67 75 90 90 67 38 27 32 34 32 32 33 33 36 37 36 38 43 48 55 57 55 57 62 64 64 61 55 55 59 60 59 59 60 62 64 66 68 69 65 63 68 73 71 68 72 74 66 63 71 75 70 67 70 71 70 67 62 58 57 58 63 67 70 75 79 78 78
12 14 25 38 40 37 35 33 31 28 23 21 24 25 22 30 50 64 65 65 71 74 72 64 46 32 30 31 30 31 31 33 36 37 34 35 38 42 49 54 53 56 62 64 60 56 55 55 56 58 63 65 64 67 70 71 71 69 66 69 72 72 71 71 69 65 60 60 67 68 59 56 62 68 68 66 62 59 59 61 67 71 72 75 80 81 81
11 11 19 32 39 39 37 34 32 28 22 20 23 23 24 40 60 66 64 68 72 68 66 66 56 39 30 28 29 30 30 29 33 36 34 34 35 37 42 48 51 56 62 62 56 53 53 53 55 61 67 66 64 67 72 71 69 66 65 70 71 68 68 68 62 58 58 59 64 67 63 59 61 65 67 66 61 58 59 61 64 69 71 73 76 80 83
11 10 13 25 36 39 38 35 34 30 23 20 21 23 29 46 62 66 65 68 69 67 67 66 56 42 34 30 28 28 28 26 28 32 33 34 34 34 38 42 45 49 55 55 52 53 54 56 58 61 63 62 61 63 66 66 64 64 66 71 73 70 69 66 62 62 63 61 62 66 65 62 63 65 67 66 61 58 60 61 63 69 74 74 74 76 79
11 10 9 19 31 38 39 37 35 32 25 21 21 22 30 50 66 65 58 56 59 63 69 71 61 46 36 33 30 27 24 24 27 29 31 33 33 32 35 39 42 45 47 46 48 53 55 57 60 59 59 61 61 58 61 64 63 62 66 73 74 71 68 66 65 66 64 62 64 66 64 62 65 68 68 65 62 61 63 64 66 71 76 78 78 78 78
12 10 7 15 27 35 38 36 35 34 28 22 23 24 34 56 67 53 40 45 57 64 71 74 66 51 41 35 30 26 23 24 27 28 28 31 33 32 32 36 39 43 44 44 48 52 53 56 60 61 59 59 58 57 61 64 61 60 68 76 75 71 69 68 67 67 66 65 67 68 67 67 69 70 69 67 66 67 68 68 70 75 78 80 81 79 79
11 10 7 13 23 32 37 36 35 34 29 24 23 21 28 43 46 34 33 50 62 67 71 72 67 63 56 42 30 25 25 24 25 26 26 27 30 31 32 34 36 37 40 44 49 51 54 57 61 61 60 60 60 63 65 61 56 63 75 78 74 72 71 70 68 68 68 69 69 70 72 73 71 69 69 68 68 71 72 72 74 79 81 82 82 81 81
10 10 6 11 20 29 35 35 33 32 28 24 21 18 20 25 24 25 42 59 63 63 68 73 75 73 61 42 29 26 25 25 25 25 24 25 27 30 31 33 34 35 37 43 49 53 54 55 56 56 57 59 61 64 63 60 63 72 78 76 73 72 71 70 70 70 70 70 67 65 68 70 67 65 68 70 71 74 76 76 78 82 83 84 84 84 82
10 9 6 10 19 29 33 33 32 31 27 22 19 17 21 27 29 36 53 64 62 60 67 76 81 72 52 39 36 32 26 25 26 25 24 24 25 28 30 31 34 37 40 44 49 52 52 53 55 55 53 56 60 61 58 61 73 81 80 76 75 73 72 74 74 73 72 70 63 59 61 65 65 66 70 73 75 77 79 80 81 84 86 86 85 85 84
10 10 7 12 22 29 32 30 28 26 23 21 20 19 23 32 40 47 54 58 57 59 62 66 67 59 47 45 45 36 27 26 28 27 26 23 22 26 30 32 37 41 43 44 48 51 52 54 56 54 51 53 57 56 54 61 75 83 81 80 79 76 76 79 78 76 75 70 62 60 63 65 65 68 72 74 76 80 84 85 85 86 87 87 86 85 84
10 9 10 20 28 30 28 27 27 26 23 23 25 26 28 35 39 41 42 46 51 54 55 54 53 50 47 47 44 35 27 26 28 27 24 21 21 24 27 32 38 41 43 46 50 52 55 56 52 49 50 52 51 51 51 57 68 75 76 77 77 74 71 73 75 75 73 69 65 66 69 68 67 70 74 76 80 83 86 88 89 88 87 88 87 85 84
10 13 19 27 30 29 29 31 35 36 32 29 29 30 31 34 35 35 38 44 50 53 55 55 53 50 48 45 41 36 32 30 31 30 25 23 23 22 23 32 39 38 39 46 50 50 53 58 56 51 49 48 47 49 52 55 60 65 66 68 71 70 68 70 74 72 70 73 75 74 73 72 72 73 76 78 83 86 88 90 90 88 87 87 87 86 84
11 21 30 34 34 37 42 46 50 50 45 40 40 41 38 37 38 42 48 55 59 61 62 60 53 48 48 45 38 33 31 32 34 31 27 25 25 23 22 29 38 38 38 43 47 47 50 61 68 65 56 51 49 49 50 52 57 63 65 65 66 68 68 70 72 68 68 75 80 78 77 78 78 78 78 79 81 85 88 88 88 87 85 85 86 87 85
22 30 36 40 46 54 58 59 60 60 55 50 50 50 47 44 45 47 54 63 69 70 69 63 52 45 46 46 39 33 31 34 37 36 32 27 25 26 27 28 32 38 38 37 40 40 39 47 61 62 54 54 57 53 50 54 59 63 66 67 67 67 67 68 69 66 63 65 66 66 67 71 73 75 78 79 81 84 86 86 86 86 84 84 85 86 85
32 38 40 43 49 55 57 56 58 59 57 55 54 51 46 45 45 44 48 57 62 63 63 60 52 45 44 43 42 38 33 32 34 37 34 28 25 28 31 30 32 38 37 34 40 44 40 43 54 52 42 45 54 55 54 59 62 64 67 69 68 67 67 67 68 67 64 62 62 62 63 65 68 70 74 77 79 83 85 85 84 83 82 82 83 84 83
41 49 51 51 51 51 48 48 53 58 58 55 54 51 46 44 43 41 42 47 49 49 50 51 50 47 45 45 48 45 37 32 33 32 30 29 27 25 27 30 32 34 32 32 42 48 45 45 54 53 42 41 51 57 60 63 63 64 68 70 68 67 67 67 68 69 67 65 65 65 66 67 69 71 73 75 77 79 81 82 83 82 81 81 82 83 82
46 55 63 64 61 56 52 50 53 57 55 51 53 56 53 49 45 41 38 40 41 38 37 40 41 39 38 40 43 41 35 32 32 28 25 26 26 26 31 37 34 28 29 35 44 45 40 40 46 46 38 39 50 59 63 63 62 63 67 69 68 66 65 66 67 69 69 68 67 66 66 67 69 72 75 76 77 78 79 80 81 81 80 80 81 81 82
43 60 74 80 74 67 65 63 59 57 56 54 57 60 58 52 48 45 41 39 36 32 31 34 34 33 33 35 36 35 31 29 28 26 25 26 27 30 35 38 32 26 29 37 40 39 36 38 42 37 31 35 49 61 64 63 63 65 67 68 67 66 66 67 70 70 67 66 67 67 66 66 69 74 78 77 77 78 78 79 79 80 80 80 80 80 80
50 72 88 95 87 74 69 64 57 56 62 61 57 57 57 54 50 47 43 39 35 32 34 36 35 34 35 35 32 31 30 27 24 23 24 28 31 32 31 29 29 30 31 33 35 35 35 38 40 34 26 30 44 57 64 66 66 67 68 66 64 64 66 69 72 71 66 64 68 70 67 66 72 78 79 78 77 77 78 78 79 79 79 79 79 79 79
68 88 97 99 86 70 62 58 54 55 61 61 56 54 55 54 51 47 43 40 38 36 36 37 39 39 37 34 31 31 28 23 21 24 29 31 31 31 28 28 33 36 33 31 33 32 29 31 35 30 22 26 38 52 63 67 66 67 68 65 62 64 67 69 72 73 67 64 68 70 67 66 72 78 79 79 78 76 76 77 78 78 79 79 78 77 77
85 99 99 93 78 63 57 55 55 54 54 54 55 56 54 51 51 48 42 40 39 37 35 36 40 41 38 34 32 32 26 19 20 28 33 31 28 29 31 32 34 35 32 31 33 31 26 28 30 24 20 27 39 50 60 67 68 68 67 61 58 62 67 68 71 74 69 65 68 70 68 68 72 76 77 78 78 77 76 77 77 77 78 78 77 77 77
97 101 97 91 80 67 57 54 57 58 54 53 56 56 51 48 47 43 39 38 38 37 36 37 39 40 39 36 33 32 29 25 25 29 30 28 28 33 36 35 34 35 32 29 32 35 33 28 23 17 17 28 40 48 56 65 69 68 64 58 56 60 65 67 71 74 71 68 70 72 70 70 72 74 75 76 76 76 77 76 75 75 76 76 76 77 76
102 100 97 92 82 71 61 59 64 64 58 55 56 53 48 45 43 40 39 39 37 35 37 39 39 38 38 37 35 35 34 30 27 29 30 29 30 33 35 33 35 39 35 29 30 35 32 24 17 13 16 26 37 44 51 59 66 67 62 57 56 60 63 64 67 72 72 71 71 72 71 71 72 73 73 73 73 73 74 74 74 74 74 73 75 75 74
98 98 99 98 92 84 77 72 69 62 55 52 53 50 45 44 42 39 37 37 35 36 40 41 39 37 37 37 37 38 36 31 28 30 32 33 32 34 36 35 34 33 32 32 34 33 26 20 19 18 18 24 35 42 46 52 60 65 63 57 56 60 62 61 64 69 72 72 71 70 69 69 70 72 72 70 69 68 69 70 71 72 71 70 71 71 70
95 96 100 98 91 83 75 68 64 60 56 54 55 52 46 42 40 39 37 34 34 38 43 45 43 40 38 38 39 39 37 37 35 31 30 34 37 35 33 35 35 32 29 30 32 26 18 17 22 24 22 24 33 40 43 47 54 61 63 59 57 59 60 61 64 70 72 71 69 68 66 65 67 70 71 69 66 65 65 66 67 68 67 66 65 64 64
98 98 96 89 82 78 75 69 65 62 57 55 56 54 48 42 39 39 38 36 34 35 40 47 50 44 37 37 39 36 33 35 37 32 29 35 39 34 28 31 38 37 29 22 21 20 18 20 25 27 25 25 30 36 40 43 48 56 62 61 59 60 61 61 64 69 72 71 70 68 66 64 64 66 68 68 67 66 65 63 63 64 63 63 62 61 61
102 97 87 77 73 76 77 73 67 61 57 55 55 52 46 41 40 40 38 37 37 36 39 47 51 44 37 38 41 36 31 35 40 37 33 34 38 38 35 34 34 31 24 18 17 20 21 22 23 25 25 25 28 34 39 42 46 53 59 61 61 61 61 61 63 67 70 71 71 70 68 66 65 65 66 66 66 65 65 62 60 58 56 56 56 57 57
Wind_Speed
24 24 23 23 25 24 24 23 20 17 14 12 9 7 5 3 1 2 1 2 6 6 1 2 1 2 3 4 7 8 6 4 4 4 3 3 4 3 3 3 2 1 0 1 3 3 2 1 2 3 5 4 3 12 22 22 16 9 3 3 4 3 1 3 3 2 1 1 2 1 7 9 7 7 8 7 6 5 4 2 4 5 5 4 2 3 2
24 24 24 24 25 24 24 23 21 16 13 12 10 8 6 4 3 2 2 4 6 4 1 2 2 3 4 5 6 7 6 5 5 4 3 2 2 1 1 1 1 1 1 1 2 2 1 0 1 2 2 2 2 14 24 21 13 8 6 6 6 3 1 3 5 5 5 4 3 3 6 7 6 5 6 8 8 6 3 2 3 5 6 7 6 5 2
24 24 24 24 24 23 23 24 23 15 10 10 9 8 7 6 3 2 3 5 6 3 1 3 4 5 6 6 5 5 4 6 6 6 5 4 3 2 2 2 1 0 0 2 2 2 1 0 1 1 1 1 2 11 22 18 10 10 12 11 8 3 1 3 5 7 8 7 6 4 5 4 3 3 7 10 10 10 5 2 4 5 4 7 6 3 1
24 24 24 24 24 23 22 24 25 17 8 7 7 6 6 3 1 2 3 4 5 3 3 3 4 4 6 5 3 4 4 3 5 5 5 5 4 3 3 2 1 1 1 3 3 2 3 1 1 1 2 2 3 6 16 16 13 14 14 15 9 1 1 2 2 4 4 3 2 1 3 7 6 5 8 9 9 10 8 4 5 4 4 5 4 3 5
24 24 24 24 24 23 21 23 24 18 9 6 6 6 4 2 1 1 2 3 3 3 4 4 4 4 5 4 4 5 7 6 2 2 3 4 4 2 1 2 3 1 1 4 3 1 3 2 3 2 2 2 3 3 9 11 13 13 13 15 9 1 2 3 2 2 1 1 2 1 2 8 9 8 10 10 9 10 10 7 4 6 5 4 4 6 8
23 24 24 24 24 22 19 21 23 18 10 7 7 6 3 2 2 3 3 3 1 0 3 5 5 6 4 2 4 6 8 9 6 2 3 5 4 0 1 5 7 4 1 2 3 2 2 1 3 2 1 2 2 3 3 3 6 8 9 10 6 1 4 4 2 3 2 2 0 2 2 3 4 7 10 11 11 13 13 10 7 9 7 5 7 12 9
23 23 23 23 24 21 18 19 21 18 12 7 6 6 4 3 4 6 6 5 4 5 8 8 7 7 4 2 2 5 8 10 6 3 4 4 4 3 3 6 9 6 2 2 3 2 2 1 2 2 1 1 2 3 3 1 2 4 6 5 2 2 4 3 4 4 2 3 1 2 4 2 2 5 7 8 11 14 13 9 6 7 4 1 9 15 9
22 23 22 22 23 21 18 17 18 17 13 8 6 5 6 5 5 7 8 7 8 9 8 7 5 4 3 1 1 3 5 8 7 5 3 3 5 4 4 7 8 5 5 6 5 3 1 0 1 3 3 2 1 2 2 3 3 3 5 4 1 3 2 3 4 4 1 2 3 1 4 5 4 4 3 4 8 9 7 4 4 4 2 2 8 11 4
21 22 22 21 22 22 19 17 16 16 14 12 9 7 9 9 7 7 7 5 5 5 5 4 3 3 2 2 3 3 4 8 9 5 1 2 4 2 4 7 6 3 8 11 8 4 3 2 2 1 2 1 1 1 1 5 6 5 4 3 2 2 1 2 3 4 2 1 2 0 3 3 5 5 3 5 6 4 1 2 3 5 7 8 8 6 4
20 21 21 21 21 21 20 18 16 14 13 14 12 10 12 12 10 8 6 3 3 4 4 3 2 2 2 2 5 6 6 7 7 4 1 1 1 2 4 6 4 3 8 9 9 10 8 5 3 0 2 6 6 4 3 4 5 5 5 3 2 4 4 2 3 4 3 0 1 1 3 4 3 3 4 5 3 2 2 1 2 5 9 10 6 4 5
19 19 20 20 21 21 21 19 17 15 14 13 12 12 12 12 11 10 6 2 2 2 3 3 2 2 4 5 6 6 6 7 5 2 2 2 2 4 7 5 2 1 4 7 14 14 6 1 1 5 9 10 9 8 7 5 3 1 4 3 2 5 5 2 2 3 3 1 1 1 4 4 1 1 2 4 3 4 5 2 2 4 4 2 0 4 11
18 18 19 19 19 19 20 20 20 19 17 13 11 11 10 10 11 9 4 2 3 3 2 4 4 4 7 8 6 5 7 8 6 4 4 5 7 8 6 2 1 1 5 14 17 8 4 5 6 8 8 7 6 7 8 7 5 3 1 3 5 7 5 2 1 1 2 1 1 3 5 3 2 2 2 3 3 5 3 2 4 5 4 1 2 7 15
17 18 18 18 18 18 19 20 20 21 20 18 14 11 9 8 8 7 4 3 3 3 4 6 8 8 9 9 8 7 7 8 7 5 6 6 6 6 3 1 1 4 9 16 13 5 5 3 4 5 3 4 3 4 6 6 5 3 1 2 5 6 5 3 2 1 2 2 4 4 2 1 2 3 0 3 4 4 3 4 6 9 8 5 5 8 12
16 17 17 17 17 17 18 19 20 21 21 21 17 12 9 7 6 6 5 3 3 6 6 6 7 9 11 11 9 8 6 5 3 2 3 4 5 6 5 3 3 6 10 11 7 4 2 0 2 3 1 2 2 2 3 4 4 3 2 0 3 5 5 4 2 0 1 3 4 2 1 1 2 1 3 6 5 5 4 3 4 8 9 7 7 10 13
15 16 16 16 16 17 17 19 20 20 22 22 17 12 10 9 8 6 4 4 4 5 3 1 4 8 9 10 9 7 4 3 3 2 2 3 5 6 6 4 4 5 7 6 3 2 1 1 2 3 2 2 2 1 1 1 2 3 2 1 3 3 2 3 3 2 1 2 3 2 3 4 3 2 4 4 3 4 4 1 3 6 10 12 11 13 16
14 14 15 15 15 16 17 18 20 21 22 22 18 13 11 12 11 8 6 5 3 3 4 5 6 7 7 8 8 6 3 3 4 3 2 2 4 5 5 4 3 4 4 4 2 1 1 1 2 2 2 1 2 2 1 0 1 3 2 2 6 5 2 1 3 2 2 3 4 4 4 2 1 2 3 3 5 6 4 1 3 5 14 18 15 16 20
13 13 14 14 15 15 16 17 19 20 21 22 19 15 14 13 12 10 7 5 4 7 8 6 6 6 5 5 5 3 3 3 3 2 2 2 4 6 6 5 6 7 6 3 1 2 2 1 1 1 1 0 0 1 2 2 3 3 2 3 6 5 2 1 3 3 3 4 3 2 2 1 1 3 4 7 8 7 4 3 2 5 17 24 21 21 25
13 13 13 14 14 15 15 16 18 19 20 21 18 14 13 14 13 9 8 7 4 7 8 8 8 8 5 4 5 4 4 3 2 1 2 2 3 5 6 4 5 6 7 4 0 1 2 1 1 1 1 0 1 0 1 2 3 3 3 3 4 3 2 1 3 3 4 5 3 2 2 1 1 3 9 12 8 4 4 3 2 5 17 23 23 25 28
14 13 13 13 14 14 14 16 17 18 20 21 19 14 12 14 16 11 8 7 4 8 15 15 12 9 5 5 8 6 5 5 4 3 1 0 2 4 4 3 3 3 4 3 0 1 2 1 1 0 1 1 0 1 0 1 1 1 2 2 2 2 2 1 2 3 3 3 2 2 2 1 4 7 11 11 5 3 3 1 4 6 18 20 21 26 29
14 13 12 12 13 13 14 15 15 17 19 20 20 17 12 14 19 15 9 7 8 14 19 16 11 11 12 10 10 9 8 5 3 2 0 1 4 4 1 2 3 2 0 1 1 0 0 1 1 0 0 1 0 1 1 0 0 1 1 0 1 2 3 3 3 3 1 1 3 3 2 4 13 14 8 5 3 0 1 3 4 6 17 18 18 22 25
14 12 12 12 12 12 13 14 14 16 17 18 21 19 14 15 19 18 14 8 9 12 15 15 16 17 14 12 11 11 10 6 3 3 4 4 5 4 0 1 0 1 2 1 1 1 1 1 1 0 0 1 1 1 0 1 0 1 1 1 0 2 2 2 3 3 3 3 5 2 2 5 15 10 3 3 6 2 3 2 3 8 16 17 16 19 24
14 12 12 12 11 12 12 12 13 15 16 18 20 20 18 19 20 21 19 12 11 14 15 15 15 12 9 10 10 7 5 4 2 5 7 6 5 3 2 2 1 2 4 3 1 2 1 1 1 1 1 1 0 0 0 1 1 1 1 2 2 1 0 1 2 2 2 2 2 1 4 4 11 3 7 3 8 1 4 4 8 12 19 21 19 22 27
14 13 12 11 11 11 11 12 13 14 15 18 19 19 21 20 21 23 20 16 17 20 17 12 11 13 14 12 9 6 4 3 2 4 6 6 4 3 3 2 1 1 3 2 0 1 2 2 1 1 1 1 1 2 1 1 1 0 1 1 0 1 1 1 1 1 1 1 1 2 4 3 8 6 4 1 7 4 3 2 8 13 20 25 25 27 31
14 13 12 11 12 12 11 12 13 13 15 17 17 19 21 20 21 24 20 14 16 17 14 11 12 15 18 13 7 8 8 6 4 4 4 7 6 3 1 1 2 1 1 3 4 0 3 1 1 1 1 1 2 1 1 2 2 1 1 1 0 1 2 1 1 0 2 1 1 1 3 3 5 8 5 1 4 5 2 2 5 10 16 23 26 29 33
14 13 13 12 12 12 12 11 12 13 15 16 17 19 20 19 22 23 16 10 10 8 6 9 12 16 17 11 6 9 10 6 5 6 3 6 8 6 3 2 3 5 6 9 8 2 3 1 1 1 1 3 4 1 1 1 1 1 2 2 1 2 3 1 1 1 1 2 2 4 6 5 5 9 8 5 4 6 5 5 6 9 15 22 25 28 33
14 13 13 12 12 12 12 12 12 13 14 15 16 17 18 20 22 18 9 7 8 5 2 5 12 18 16 8 7 12 10 4 4 6 5 3 4 6 8 10 10 9 10 11 8 4 3 1 1 1 1 3 4 1 0 1 0 1 2 1 1 2 2 1 1 1 2 3 3 3 4 4 6 9 11 9 6 6 8 9 10 13 17 22 25 27 31
14 14 13 12 12 13 12 13 13 13 14 15 14 15 17 19 17 10 4 6 8 4 1 5 16 21 16 8 8 13 11 6 5 5 6 4 3 4 7 9 10 10 10 8 5 3 3 1 1 1 0 2 3 1 0 1 1 1 1 1 2 2 2 2 2 2 1 2 2 2 1 2 3 8 12 12 9 7 9 11 13 16 20 23 27 29 30
14 14 13 12 12 12 13 13 13 14 14 14 13 14 15 15 10 4 3 7 7 4 4 12 20 19 12 7 9 12 11 8 4 4 5 5 3 3 4 4 6 9 9 5 2 2 1 1 1 1 2 3 3 1 1 1 1 1 1 3 3 2 3 4 2 1 1 2 3 5 3 3 4 6 11 14 11 8 9 11 12 16 20 23 28 31 32
14 14 13 13 12 12 12 12 13 14 14 14 13 12 10 9 6 4 5 8 9 9 11 15 14 11 9 10 11 12 12 9 4 2 3 4 4 4 3 0 2 5 6 4 3 1 1 2 2 2 2 3 2 1 1 1 1 1 0 2 3 3 4 5 2 0 1 5 3 7 4 4 5 6 10 13 12 10 9 10 11 15 19 23 27 31 33
14 14 14 13 12 12 12 12 12 13 14 13 12 9 6 5 4 3 7 11 12 11 11 7 5 9 14 14 12 13 13 8 4 1 1 1 2 3 2 2 1 3 4 4 3 2 2 2 2 2 2 2 1 1 1 1 1 1 1 1 3 5 7 7 5 4 3 5 2 8 4 2 2 7 8 10 10 9 8 9 11 14 19 23 27 30 32
15 14 14 14 13 12 12 12 12 13 13 13 10 5 2 1 2 4 11 13 12 11 9 5 7 12 13 11 11 14 13 8 5 3 1 0 1 1 1 2 3 3 3 3 5 4 3 2 1 1 1 1 1 1 2 1 1 1 1 1 2 3 4 5 6 5 4 2 5 7 3 4 7 8 7 9 9 8 7 8 10 14 18 22 26 28 31
15 15 15 14 13 13 13 12 12 13 14 13 11 8 5 4 6 10 13 11 8 8 7 4 5 6 5 8 14 14 11 7 5 4 3 2 1 0 0 2 5 5 4 5 5 4 2 1 1 1 1 1 1 1 1 1 1 1 1 0 1 3 4 4 5 4 2 5 8 5 3 7 9 5 5 9 9 7 6 7 10 14 18 22 25 26 29
16 16 15 14 13 13 13 13 13 13 14 14 13 11 9 9 11 12 10 6 7 7 4 2 2 1 3 10 14 11 10 8 5 3 3 3 2 1 1 2 4 6 6 4 3 2 2 2 1 1 2 3 2 1 1 1 1 1 1 2 3 4 4 5 5 5 7 8 5 1 3 8 8 6 7 9 8 6 6 8 12 16 19 23 26 27 30
17 17 15 14 13 14 14 14 13 13 13 13 12 10 8 7 9 10 9 6 6 6 3 3 2 1 4 8 6 6 10 10 5 3 3 4 4 3 2 2 2 3 5 4 2 2 2 2 1 0 1 3 2 0 2 1 2 2 3 4 4 4 6 7 8 10 10 6 2 3 4 9 10 9 9 9 7 6 7 10 14 19 21 24 27 29 31
17 16 14 13 13 14 14 12 11 11 11 11 10 9 8 7 9 10 10 7 6 4 3 3 2 1 4 4 1 5 11 9 4 3 4 4 4 4 3 2 2 2 3 3 2 2 2 2 2 1 0 1 1 2 2 2 4 6 6 6 7 9 10 9 10 11 8 2 1 4 9 11 11 10 10 8 7 8 10 13 17 20 23 25 27 30 32
17 16 14 13 13 13 11 10 9 9 10 9 9 8 7 9 11 11 11 11 9 6 3 1 1 2 1 1 2 6 10 8 6 6 4 3 3 3 3 2 2 2 2 2 2 1 2 2 2 1 0 0 2 2 1 3 8 10 9 10 12 11 8 8 10 11 8 3 4 10 12 11 10 11 10 8 8 9 13 16 19 21 23 25 28 30 32
16 15 13 12 11 10 8 7 7 7 8 9 9 9 9 11 11 10 11 11 11 11 8 4 2 3 3 1 3 6 6 6 6 5 3 2 2 3 3 3 1 1 2 2 1 2 2 2 2 1 1 2 3 3 2 3 7 10 9 11 13 9 5 7 12 12 10 8 9 11 11 10 11 12 10 10 11 12 15 18 20 22 24 26 28 30 31
16 14 12 10 7 5 4 4 5 6 7 7 7 7 8 10 8 6 7 7 7 9 11 7 4 6 6 3 4 7 5 5 4 2 2 3 2 2 3 3 1 1 1 0 1 3 3 1 1 0 3 5 5 6 6 6 7 8 8 11 12 8 6 9 13 13 11 10 9 11 11 12 13 13 12 12 13 14 17 19 21 22 25 27 28 29 31
15 13 10 7 4 3 3 4 5 5 6 6 7 6 6 7 6 3 4 6 4 5 8 7 7 9 9 5 5 9 7 3 2 1 1 2 2 1 1 1 1 1 1 0 2 3 2 1 1 1 3 3 3 5 6 7 10 9 9 11 10 6 6 10 12 11 8 6 5 7 8 8 11 14 15 14 15 16 18 20 21 23 25 26 28 29 31
12 10 7 6 5 5 7 7 6 5 4 5 6 4 4 5 4 3 3 3 2 3 6 6 6 9 12 9 5 6 6 4 2 1 1 0 1 1 1 0 1 1 0 1 2 2 1 1 1 1 2 1 2 3 4 9 11 10 10 12 10 7 7 9 9 8 4 2 2 5 5 3 6 12 14 15 17 18 20 21 21 22 23 26 28 29 31
12 11 10 9 10 9 8 8 7 5 4 5 4 2 1 2 3 2 2 2 1 3 6 6 3 4 8 11 8 5 5 5 4 3 1 0 0 0 0 0 1 1 0 1 2 2 1 0 0 1 2 2 2 3 7 11 11 9 9 11 10 9 9 9 8 7 5 1 1 5 6 4 5 10 14 16 17 18 20 21 22 22 23 25 27 28 29
13 13 14 14 12 9 5 5 7 5 3 3 2 1 0 1 1 2 2 2 1 1 4 5 3 1 3 6 7 6 5 3 3 3 2 0 1 1 1 1 1 1 0 1 1 2 1 1 1 2 2 2 2 7 11 13 11 9 9 10 9 10 10 9 8 7 4 0 1 3 5 4 5 10 14 16 16 17 19 21 22 22 23 24 25 26 28
11 12 13 12 9 6 3 2 6 5 1 1 1 1 1 1 1 0 1 2 2 0 1 1 2 2 2 3 4 5 4 3 3 2 1 1 1 1 2 1 1 1 0 0 1 1 0 1 1 2 2 1 3 9 13 13 12 10 10 10 9 9 9 8 7 5 3 3 3 4 4 3 5 9 14 16 16 17 18 19 20 21 22 23 24 24 25
9 7 7 6 5 2 0 1 4 3 1 0 1 2 1 1 1 0 0 0 1 1 2 3 2 1 0 1 2 3 3 3 2 1 1 1 1 1 1 0 1 0 0 0 0 0 1 2 4 6 7 5 5 11 14 13 12 12 12 11 10 9 9 9 7 5 5 5 4 5 5 5 7 10 14 15 15 15 17 17 18 19 20 21 21 22 22
7 4 3 3 2 1 2 1 1 2 2 1 1 2 1 1 1 1 1 1 1 2 4 4 2 2 2 2 1 2 2 2 2 1 0 1 1 1 0 0 1 1 0 1 0 1 1 1 3 6 9 6 5 12 14 13 13 13 13 12 10 9 9 9 7 6 6 5 5 7 7 7 9 12 14 14 14 13 14 15 16 17 18 19 20 20 21
6 3 2 2 2 1 2 1 1 0 1 1 1 1 1 1 1 1 2 3 3 5 7 6 4 3 3 2 1 1 1 1 2 1 1 1 1 0 0 0 1 1 1 1 1 2 2 2 3 6 10 4 8 14 14 14 14 13 13 12 10 9 9 8 7 7 7 5 6 8 8 8 11 14 14 14 14 14 14 14 14 15 17 19 19 20 21
3 3 2 1 1 1 1 1 1 1 1 1 1 2 1 1 2 2 4 5 6 7 8 6 3 3 2 1 0 1 0 0 1 0 0 1 1 0 1 0 0 0 1 1 2 2 2 3 5 9 11 3 9 15 14 15 16 14 13 11 9 9 10 9 8 8 8 7 8 9 9 9 11 13 13 13 14 14 14 14 14 14 15 17 19 19 20
2 1 1 1 1 1 0 1 2 1 2 2 3 5 5 4 3 4 7 8 8 9 7 4 1 2 1 0 0 0 1 1 1 1 0 1 1 1 1 1 1 1 2 2 2 2 2 5 9 12 11 4 8 14 15 15 16 16 14 11 9 10 11 9 8 8 9 9 9 10 10 10 11 12 12 13 14 14 14 14 15 14 15 18 20 21 22
2 2 2 2 2 2 3 4 4 2 2 3 4 7 8 6 5 7 10 12 12 9 4 1 1 1 1 1 1 0 0 0 1 1 1 1 1 1 1 0 1 1 1 2 2 3 4 8 11 13 11 5 6 12 14 14 15 17 15 11 9 10 11 10 8 8 10 10 11 11 11 11 11 12 14 15 15 14 14 15 16 17 18 20 22 23 23
4 3 3 3 2 2 2 2 1 1 2 4 4 6 8 8 8 9 11 13 12 7 1 2 1 0 0 1 1 0 1 1 1 1 1 1 1 1 1 1 2 2 1 2 4 6 8 11 12 12 10 5 5 12 13 13 14 16 15 12 10 10 11 10 9 9 11 11 12 12 12 12 12 13 15 16 16 15 14 15 17 18 19 21 22 22 22
3 3 5 5 5 4 2 2 1 2 3 4 4 6 8 9 8 9 11 12 10 5 2 1 1 1 1 1 0 0 1 1 2 1 0 1 2 2 1 2 3 3 3 4 5 6 8 11 12 11 7 2 5 11 13 12 13 14 15 13 12 11 11 10 9 10 11 12 13 14 14 14 13 13 14 15 16 16 15 16 17 18 18 19 20 19 18
4 3 4 5 7 7 7 5 4 3 3 4 5 7 8 8 7 8 10 9 7 4 1 0 0 1 1 0 1 0 1 2 1 0 1 1 2 2 2 2 2 3 5 7 7 6 6 9 12 10 4 2 6 10 12 13 13 14 15 14 13 13 12 12 11 11 12 13 13 14 14 15 15 15 15 16 16 17 17 17 17 16 17 18 18 18 18
Wind_Direction
353 354 355 357 355 353 356 356 354 357 2 4 10 17 25 38 37 9 8 287 323 338 290 213 246 238 258 275 268 267 269 266 276 286 271 242 228 224 231 220 207 224 289 111 137 131 106 112 115 129 173 201 190 170 168 162 160 164 160 169 167 149 153 163 144 128 194 233 359 250 192 179 188 205 186 174 183 188 204 186 146 174 181 153 180 231 200
354 354 357 359 357 357 359 356 352 355 359 357 359 5 3 345 319 326 314 306 328 341 304 292 305 284 277 279 276 266 253 252 272 287 277 257 263 269 254 211 186 314 329 134 127 127 107 10 82 104 161 203 156 163 165 162 164 174 178 174 171 171 204 173 157 150 164 184 176 176 188 190 200 199 184 189 182 155 128 99 162 206 190 169 196 218 187
355 357 358 358 357 359 2 358 352 354 358 350 347 349 345 332 310 295 285 297 310 304 275 293 294 296 292 283 286 287 263 240 246 273 276 258 260 280 284 260 192 245 13 100 76 61 76 102 161 92 106 69 98 162 170 166 166 186 185 169 160 168 184 170 173 170 171 183 190 184 174 177 203 192 189 198 183 164 158 145 187 217 181 176 208 208 141
356 358 359 359 358 1 5 360 354 353 356 354 348 347 347 342 309 303 292 288 286 266 261 268 267 295 313 310 318 341 337 278 241 254 259 248 249 257 285 295 173 181 117 100 79 39 42 68 169 137 131 117 50 162 176 174 176 186 180 160 146 129 156 153 178 180 171 170 172 150 154 173 190 190 187 197 189 176 177 181 196 186 146 179 218 136 148
355 357 358 0 0 3 6 2 356 353 357 5 358 347 345 342 275 307 308 287 272 261 262 248 247 299 327 336 336 337 340 338 308 235 233 266 280 254 250 26 43 29 97 103 100 63 41 88 157 142 103 98 52 127 173 183 185 182 172 158 145 102 196 173 164 166 143 90 118 117 189 192 193 184 183 195 191 182 192 204 175 137 153 202 192 151 165
355 356 359 0 0 2 6 3 357 356 4 14 3 348 330 313 293 286 293 295 266 267 283 264 267 291 297 302 316 323 344 1 7 315 274 299 316 306 76 25 17 359 302 123 117 118 77 104 156 142 96 109 96 95 110 185 191 174 167 163 149 142 191 184 188 165 115 45 128 194 201 199 201 198 196 193 187 188 200 203 168 161 198 216 168 176 190
354 356 358 0 1 2 5 4 2 4 10 13 9 2 349 333 315 307 311 309 290 290 293 288 289 297 290 280 303 318 347 3 2 308 299 332 360 37 43 360 354 351 350 120 111 100 117 176 190 162 117 95 109 116 108 134 186 158 160 163 160 204 181 165 184 184 104 32 338 221 195 182 206 218 216 202 194 197 200 195 169 172 208 177 162 183 201
355 355 358 1 3 3 4 4 5 10 12 6 4 6 359 353 335 325 324 310 292 295 299 298 307 319 319 332 322 308 337 354 347 323 320 343 353 26 40 355 344 1 46 73 74 41 11 173 168 167 153 122 157 170 146 152 149 146 160 166 197 218 189 145 164 189 234 23 16 244 200 200 209 216 227 213 204 206 199 167 140 142 117 98 161 179 202
356 356 358 0 4 6 5 4 7 14 17 8 3 4 357 352 340 330 328 313 302 315 316 306 321 342 348 354 350 337 334 343 343 336 314 319 334 19 30 354 336 10 47 52 48 8 319 335 18 184 190 104 146 209 188 157 149 149 165 163 168 183 156 116 160 188 212 39 26 267 178 182 222 233 216 192 192 200 181 136 176 173 141 129 147 177 206
356 357 358 359 3 6 6 7 9 15 19 11 0 352 350 349 344 341 335 309 310 337 329 316 336 354 333 323 338 339 328 330 341 348 324 339 54 69 14 358 344 19 43 39 6 333 307 294 320 317 107 81 79 74 86 134 145 158 164 146 142 162 145 137 177 192 203 191 5 262 176 174 231 246 185 168 159 173 176 165 235 195 148 141 162 194 168
355 357 358 359 2 3 4 7 11 13 17 12 353 338 341 344 339 338 337 298 299 335 331 336 3 345 325 329 333 325 313 321 339 359 322 324 348 336 340 353 350 21 42 3 340 335 321 278 65 104 107 89 69 59 71 82 63 140 166 144 136 157 148 146 189 192 197 199 21 280 215 206 226 29 169 171 146 163 184 196 231 206 167 145 171 124 137
354 357 359 359 1 1 359 3 10 12 12 10 355 337 333 333 329 328 330 293 308 326 333 327 318 308 319 329 329 306 296 305 305 276 272 285 302 318 332 18 64 15 354 343 343 360 106 106 91 100 92 67 42 40 60 71 47 14 197 157 151 156 151 139 153 170 165 141 143 202 217 217 51 30 254 213 157 151 176 248 247 226 216 215 155 150 156
354 357 358 357 359 359 356 359 6 10 10 7 359 341 329 330 328 325 318 295 301 326 326 308 304 317 330 333 329 314 300 300 295 268 257 268 289 310 316 212 287 328 335 339 349 47 117 87 84 101 57 28 32 29 41 51 41 19 352 154 151 155 151 127 90 105 142 156 190 204 226 9 29 20 85 169 156 151 177 233 227 207 206 206 179 171 169
353 355 356 355 356 355 354 356 2 7 10 8 0 349 345 343 329 320 322 312 300 308 308 301 313 335 343 338 334 331 318 315 320 274 243 253 265 283 295 298 311 325 331 338 359 60 105 198 102 103 48 32 74 51 32 33 33 36 11 263 152 154 153 137 127 191 181 173 187 210 326 270 238 264 177 182 188 169 175 236 219 182 188 194 169 163 167
352 352 353 354 354 353 353 354 357 2 9 11 7 5 5 356 342 327 316 313 308 297 288 310 327 333 338 335 335 337 337 345 349 324 283 265 264 282 313 336 336 334 345 359 25 69 90 170 128 117 118 141 142 123 90 359 25 42 10 8 120 128 155 163 170 194 197 176 180 195 226 227 217 187 182 203 213 158 142 254 238 173 174 179 169 163 165
348 349 351 352 353 352 351 351 354 357 5 12 15 17 14 3 356 347 325 313 312 300 312 332 329 326 330 329 326 325 326 339 335 323 323 296 295 319 348 8 9 7 17 33 51 61 59 83 123 133 132 145 162 135 113 184 79 60 25 77 103 94 62 106 152 159 168 189 193 193 207 225 217 182 176 172 164 145 130 232 237 180 172 173 169 166 168
342 344 348 350 351 352 350 350 352 353 359 10 16 19 17 8 2 355 337 320 290 290 309 344 1 347 332 318 323 328 325 335 345 346 347 328 321 337 360 33 54 46 32 23 37 50 62 78 79 113 134 118 159 125 121 147 134 116 119 112 104 98 78 134 170 165 170 186 192 214 232 214 200 199 169 155 152 144 156 226 256 162 170 173 170 169 170
338 340 344 346 349 351 349 349 350 349 353 3 11 17 16 9 6 360 334 322 294 283 309 337 333 318 306 295 306 313 313 323 338 326 295 291 308 331 349 22 60 44 23 15 71 59 65 96 62 72 122 109 314 296 143 148 146 144 144 117 97 98 90 170 187 174 181 191 197 248 253 203 195 171 155 155 158 156 177 207 13 147 172 175 171 169 168
335 337 341 342 344 349 349 347 348 347 348 354 3 11 12 2 2 358 330 313 278 286 315 326 315 304 312 302 292 294 304 305 299 302 308 333 340 340 356 44 73 45 10 10 95 60 58 101 93 54 124 123 356 332 356 156 143 126 132 125 121 132 120 124 171 165 173 202 205 235 262 178 141 141 147 160 181 193 184 307 349 175 176 175 173 170 168
334 334 337 337 340 346 347 345 345 345 344 347 352 2 7 357 355 354 337 305 276 294 321 337 329 316 319 307 289 286 292 281 242 235 248 333 336 338 13 103 82 83 18 345 95 65 34 110 114 167 137 97 273 285 325 291 174 157 197 157 141 182 171 163 170 158 128 201 193 202 266 167 151 143 140 182 219 238 109 357 354 177 176 173 172 172 170
332 330 331 332 335 339 342 343 342 341 342 341 342 349 357 354 352 351 344 316 273 285 318 336 329 322 322 318 306 290 281 274 243 246 269 290 314 328 284 172 73 130 185 227 109 72 328 99 108 204 126 79 301 276 317 312 230 169 245 298 262 223 200 175 187 185 178 193 188 182 338 180 168 153 86 188 188 51 46 128 130 161 173 170 168 172 173
327 327 327 327 329 333 335 338 337 335 336 336 336 339 346 349 350 350 346 330 294 291 310 326 333 343 1 3 351 327 289 288 280 254 259 274 293 290 245 236 224 190 208 222 124 71 307 215 126 140 173 149 183 186 99 287 270 147 195 222 205 216 214 198 226 213 197 216 214 323 339 226 198 203 18 127 178 124 36 158 168 169 175 175 170 171 174
320 321 322 321 323 327 329 331 332 330 330 331 332 334 339 344 346 344 342 335 322 321 328 342 356 9 15 14 17 19 356 320 294 265 252 252 269 285 265 242 205 195 221 237 89 117 197 220 124 123 195 177 151 140 150 261 278 228 211 233 235 39 170 191 247 288 245 265 286 311 324 275 217 233 349 62 178 163 57 141 181 181 183 182 179 175 176
315 315 317 316 317 320 322 325 326 323 323 325 327 330 333 337 340 339 337 334 332 334 338 343 352 3 4 3 18 24 7 342 324 323 263 230 239 268 296 109 76 37 325 326 334 175 161 126 77 212 244 189 168 171 216 239 240 188 183 234 327 184 183 181 18 356 207 201 80 341 314 307 233 229 257 290 186 180 131 140 191 194 190 185 182 181 179
311 310 311 312 312 314 316 318 318 316 316 317 320 325 327 331 335 335 333 333 335 336 328 322 338 356 357 354 15 19 7 355 345 346 307 247 252 261 249 255 305 314 312 319 318 270 179 123 132 202 227 191 189 212 268 228 237 195 203 242 294 173 177 183 189 188 226 260 293 304 298 287 243 226 231 237 219 206 192 177 189 198 192 187 186 186 183
307 305 306 307 308 310 311 311 311 309 307 308 315 321 324 330 332 328 330 345 337 320 267 298 326 347 356 9 33 19 12 27 32 5 354 326 296 282 267 266 278 289 295 304 299 240 199 128 140 202 225 193 194 208 184 188 184 206 220 243 82 147 175 170 158 175 275 276 265 283 292 266 224 215 218 219 222 214 198 187 189 194 191 187 188 189 187
303 303 302 303 305 307 308 307 306 303 298 300 309 316 320 327 330 323 340 12 350 331 178 281 312 333 353 20 29 18 18 36 46 19 7 12 356 305 280 269 274 282 285 290 279 217 189 128 158 219 123 147 157 142 75 156 153 189 221 181 148 166 172 150 161 194 237 277 247 222 253 270 223 213 210 207 209 209 197 188 189 193 192 188 183 182 183
301 300 298 299 301 303 305 306 302 298 295 294 302 313 319 327 333 324 342 4 357 341 295 292 304 323 347 6 13 16 13 8 21 31 17 16 16 338 305 271 270 276 271 259 222 188 175 157 159 123 113 145 156 144 96 146 186 237 233 171 177 197 175 171 192 188 141 312 265 212 201 332 305 234 204 196 196 199 195 192 194 194 195 193 187 181 178
300 296 294 296 297 298 303 305 300 295 292 290 299 313 318 316 311 308 327 341 344 336 321 312 311 321 329 334 353 10 7 359 10 43 19 20 24 7 356 267 246 254 243 220 183 132 94 127 127 106 137 179 184 163 159 170 206 254 224 168 208 231 208 208 237 173 34 341 283 200 196 323 299 227 197 191 192 192 193 197 199 198 197 197 194 188 183
300 295 292 292 292 294 298 300 298 293 288 289 300 312 311 289 273 298 329 331 330 332 333 327 312 314 318 328 348 2 2 6 31 55 354 344 8 14 31 69 110 187 195 182 152 116 96 108 107 93 124 159 160 158 169 181 226 230 194 228 251 243 231 235 234 220 281 328 232 188 202 319 182 177 181 186 187 183 188 198 202 201 199 196 193 191 187
302 296 291 288 288 290 292 293 292 284 278 283 293 295 275 216 228 303 324 326 325 327 325 297 285 305 318 332 347 351 355 9 41 58 59 321 337 2 35 56 71 113 141 120 111 110 96 84 88 95 113 127 151 151 146 181 239 204 161 272 269 236 223 222 205 205 264 284 170 172 173 141 148 156 167 175 174 172 184 200 201 199 197 194 192 191 187
303 297 291 286 285 287 287 287 283 273 267 270 269 256 245 244 263 293 310 318 324 325 319 300 297 308 319 330 338 345 355 5 20 41 46 26 2 331 126 70 67 68 76 96 105 99 75 66 92 92 64 35 55 129 136 211 233 187 90 139 164 132 141 172 184 190 197 163 154 147 149 159 159 156 164 167 164 166 183 197 194 192 191 190 189 189 186
305 298 291 285 284 285 285 281 273 263 260 263 263 262 262 256 256 269 281 296 317 317 301 289 310 278 292 316 328 345 0 360 8 45 50 30 29 49 129 116 74 54 54 73 96 86 80 93 94 76 47 40 58 125 211 228 200 166 121 139 147 144 145 158 168 163 154 153 157 269 237 188 173 160 162 163 158 165 185 193 187 184 184 185 183 182 181
308 301 292 285 285 286 284 278 267 255 253 258 262 267 268 249 234 231 231 256 302 304 267 258 272 268 302 310 316 346 355 354 4 30 20 15 20 31 61 110 94 58 46 48 72 94 84 51 16 333 42 34 36 224 235 220 179 172 159 148 146 152 154 153 157 160 161 167 232 287 212 183 168 157 160 162 159 167 181 187 184 179 177 178 179 177 176
309 303 294 288 289 289 283 275 260 248 246 251 257 260 253 229 214 213 219 242 271 270 250 254 230 247 321 320 291 341 350 355 1 344 337 344 2 16 36 52 59 53 34 38 69 79 34 11 345 265 160 5 300 234 225 209 186 175 169 165 158 150 150 155 163 167 171 197 301 152 160 166 163 157 158 160 161 168 175 180 180 177 172 173 175 175 173
309 305 297 292 292 290 281 267 252 239 235 236 240 242 233 221 221 226 234 244 248 242 245 275 203 202 296 317 277 315 337 352 352 337 325 319 343 6 31 47 56 34 12 34 77 56 19 13 341 302 159 287 253 213 183 191 186 179 178 176 166 158 160 171 172 168 165 157 149 152 156 162 162 156 155 158 161 169 175 174 174 173 171 169 170 171 172
310 307 302 296 291 284 271 256 241 233 230 227 224 227 229 230 236 245 245 244 246 242 233 232 247 234 223 225 290 300 320 340 338 334 343 343 337 6 30 36 40 328 356 54 79 6 351 359 347 284 204 253 251 213 212 216 190 179 177 174 169 166 170 169 165 160 149 140 149 156 158 163 165 160 158 160 163 169 174 172 171 173 173 170 168 171 173
313 309 307 301 291 272 248 232 224 226 229 221 212 217 224 222 229 243 232 218 227 231 221 218 245 237 211 202 263 272 292 340 345 332 1 3 347 2 29 35 31 327 336 133 353 340 339 13 42 260 260 279 269 246 249 238 198 178 171 170 169 168 164 162 164 161 147 137 151 166 167 170 174 172 167 165 168 173 176 174 174 177 178 175 173 173 174
314 311 307 298 280 247 241 247 240 233 229 217 206 207 205 198 199 209 194 183 192 207 202 210 235 225 203 200 262 267 268 302 356 353 348 1 6 15 18 28 30 14 10 87 2 353 342 18 39 328 284 286 277 263 248 209 181 171 169 170 170 163 156 163 172 171 151 123 140 171 175 181 188 185 177 171 172 176 178 177 178 181 182 180 178 176 176
318 318 312 296 280 268 263 260 257 251 227 202 197 197 188 189 198 190 161 160 188 196 189 204 236 229 217 221 254 269 256 250 267 299 304 324 4 13 28 61 34 21 331 301 3 7 331 308 8 334 288 273 280 269 214 176 168 164 164 168 167 155 153 167 179 183 171 87 111 171 180 198 207 198 188 178 175 177 179 180 181 184 185 184 183 182 182
331 333 325 313 305 294 271 248 239 234 207 183 184 192 176 188 210 197 155 144 248 217 201 204 221 225 221 223 228 238 246 249 256 266 267 284 17 18 101 33 17 44 240 287 352 27 44 58 342 290 271 259 243 203 169 163 164 164 164 166 164 156 160 172 184 193 202 251 176 190 190 191 207 207 197 185 179 178 179 181 184 187 188 188 186 186 186
329 325 317 313 314 314 293 233 211 203 186 166 179 231 290 182 199 205 199 212 249 221 197 202 211 249 243 231 226 229 239 243 242 244 241 183 138 142 101 17 6 62 161 294 354 34 41 293 280 273 272 262 201 177 167 165 168 169 166 166 165 164 170 180 192 205 214 190 114 182 187 184 202 206 198 190 184 180 181 185 187 187 189 190 190 189 189
322 316 312 313 317 330 337 219 196 189 171 90 136 155 312 277 189 201 219 218 216 107 111 226 255 278 273 243 228 225 227 227 228 228 198 134 122 97 76 45 16 54 100 20 32 55 252 252 246 258 292 292 192 179 173 171 173 170 165 164 165 169 179 193 204 208 184 121 126 159 162 157 183 195 194 192 188 183 184 187 189 190 190 191 192 192 191
323 314 315 314 306 305 13 184 185 180 190 288 161 162 204 220 191 173 10 140 156 13 360 344 312 276 282 270 229 212 210 214 210 175 113 92 63 64 77 33 339 18 74 20 10 280 282 256 243 266 298 302 220 190 181 177 175 172 168 167 170 176 188 201 209 197 160 136 144 155 147 140 159 180 188 190 188 185 186 188 190 193 194 192 192 193 193
331 329 334 322 291 214 171 219 224 189 199 224 184 161 169 181 181 176 44 40 6 338 346 346 312 258 283 315 267 210 198 186 173 157 117 101 78 67 132 130 49 65 53 16 347 294 317 279 244 283 317 320 208 190 187 182 179 176 175 175 180 188 195 202 205 191 164 144 147 157 153 147 153 166 178 184 184 185 188 188 187 190 192 191 189 189 189
336 345 357 326 287 217 181 212 312 184 186 207 176 152 176 200 172 98 29 10 341 323 330 333 306 262 278 319 302 218 220 172 159 134 62 109 124 130 228 168 52 51 44 22 307 265 282 270 270 315 337 342 180 184 188 186 182 181 181 183 186 193 198 201 197 182 166 151 152 163 166 160 156 160 169 178 181 185 190 190 188 188 188 186 184 184 183
342 358 9 330 283 265 226 218 251 278 342 25 46 45 49 103 117 65 20 358 341 329 326 322 291 239 251 299 287 245 327 82 129 89 65 145 155 48 45 42 324 126 140 242 264 251 249 269 298 328 344 356 174 179 185 188 187 186 185 186 187 191 193 191 186 179 173 165 160 166 173 174 168 164 166 172 178 184 188 189 190 191 186 180 178 179 180
320 339 322 259 225 210 236 343 338 353 47 66 63 55 60 84 89 39 15 3 351 338 324 307 242 202 219 231 164 224 16 58 118 168 83 105 109 32 28 8 325 256 202 216 231 222 250 295 312 329 342 339 183 180 182 187 190 189 187 185 186 188 186 181 179 181 179 169 162 165 173 179 179 175 172 170 171 175 181 183 182 181 177 174 174 177 179
264 260 258 274 269 252 273 306 320 350 71 81 68 49 45 50 44 19 10 6 359 348 326 256 174 190 199 125 107 198 284 99 143 152 51 69 129 159 122 104 283 268 239 217 222 242 285 314 322 328 334 326 202 186 183 184 188 189 188 186 185 184 182 179 179 180 177 170 164 164 167 175 181 183 179 173 168 169 173 175 174 172 171 171 172 173 175
245 243 238 244 254 262 292 322 324 359 33 39 40 29 20 19 18 13 8 5 3 5 50 128 98 36 146 90 61 342 243 194 140 122 107 165 160 138 147 205 227 230 202 203 238 270 303 328 335 334 335 328 205 191 187 185 185 187 188 187 183 181 183 184 181 177 174 170 166 164 167 174 182 183 179 175 171 169 170 173 175 174 173 173 173 174 177
225 238 241 237 237 247 280 325 310 282 314 342 358 2 1 2 3 1 358 359 5 20 80 117 9 15 101 115 97 191 167 144 128 121 175 211 165 138 173 220 223 223 235 254 281 304 324 337 340 340 339 323 194 191 189 185 182 184 186 186 182 180 182 182 178 174 174 175 173 170 170 175 179 178 176 176 178 179 181 182 182 181 181 181 183 186 190
202 223 251 253 250 251 259 272 275 265 273 303 325 335 341 346 349 347 348 356 11 27 45 248 31 86 115 183 253 144 108 98 102 139 225 210 179 175 198 212 215 239 257 277 305 328 337 342 344 343 336 191 178 182 186 187 184 183 186 186 183 180 181 181 177 174 175 177 177 176 177 179 182 183 183 183 186 188 188 187 185 186 189 194 197 200 204